TFL368 TNCC-EHAM

Flight info

Callsign TFL368
Flight time N/A
Altitude 39000
Route SCAPA1K SCAPA DCT DAWIN/M085F390 DCT KAVAX DCT 28N055W 31N050W 36N040W/M085F410 41N030W 46N020W 48N015W DCT OMOKO DCT GUNSO DCT LULOX/N0490F410 DCT BAPHU DCT GAJIT DCT ENHAQ M197 REDFA REDFA1A
Aircraft B788/H-SDE1E2E3FGHIJ2J3J4J5M1RWXY/LB1D1

Departure

Time 2026-04-17 13:45
Airport Hato International Airport (TNCC)

Arrival

Time N/A
Airport Amsterdam Airport Schiphol (EHAM)
Time Latitude Longitude Altitude Speed Heading
2026-04-17 13:30 12.18554 -68.95806 21 ft 0 kts 192°
2026-04-17 13:34 12.18571 -68.95803 49 ft 8 kts 191°
2026-04-17 13:34 12.18623 -68.95798 45 ft 5 kts 168°
2026-04-17 13:34 12.18646 -68.95804 46 ft 2 kts 173°
2026-04-17 13:35 12.18661 -68.95805 48 ft 1 kts 181°
2026-04-17 13:35 12.18642 -68.95814 44 ft 2 kts 220°
2026-04-17 13:35 12.18636 -68.95820 45 ft 1 kts 230°
2026-04-17 13:35 12.18635 -68.95822 46 ft 0 kts 237°
2026-04-17 13:36 12.18634 -68.95829 48 ft 1 kts 281°
2026-04-17 13:36 12.18643 -68.95850 48 ft 8 kts 298°
2026-04-17 13:36 12.18673 -68.95899 48 ft 7 kts 296°
2026-04-17 13:36 12.18691 -68.95946 48 ft 7 kts 289°
2026-04-17 13:37 12.18706 -68.95988 48 ft 6 kts 289°
2026-04-17 13:37 12.18721 -68.96032 48 ft 7 kts 288°
2026-04-17 13:37 12.18733 -68.96076 48 ft 6 kts 283°
2026-04-17 13:37 12.18744 -68.96129 48 ft 9 kts 282°
2026-04-17 13:38 12.18758 -68.96194 48 ft 9 kts 281°
2026-04-17 13:38 12.18771 -68.96259 45 ft 9 kts 282°
2026-04-17 13:38 12.18786 -68.96330 46 ft 11 kts 282°
2026-04-17 13:38 12.18801 -68.96403 46 ft 11 kts 282°
2026-04-17 13:39 12.18817 -68.96477 48 ft 11 kts 282°
2026-04-17 13:39 12.18833 -68.96552 48 ft 11 kts 282°
2026-04-17 13:39 12.18847 -68.96626 47 ft 10 kts 282°
2026-04-17 13:39 12.18862 -68.96699 47 ft 11 kts 282°
2026-04-17 13:40 12.18881 -68.96786 47 ft 13 kts 282°
2026-04-17 13:40 12.18907 -68.96909 46 ft 21 kts 282°
2026-04-17 13:40 12.18937 -68.97053 46 ft 21 kts 282°
2026-04-17 13:40 12.18968 -68.97200 46 ft 21 kts 282°
2026-04-17 13:41 12.19001 -68.97356 45 ft 23 kts 282°
2026-04-17 13:41 12.19032 -68.97507 45 ft 18 kts 282°
2026-04-17 13:41 12.19055 -68.97612 45 ft 11 kts 291°
2026-04-17 13:41 12.19094 -68.97638 45 ft 6 kts 354°
2026-04-17 13:42 12.19112 -68.97637 44 ft 0 kts
2026-04-17 13:44 12.19118 -68.97637 45 ft 3 kts
2026-04-17 13:44 12.19153 -68.97629 45 ft 6 kts 22°
2026-04-17 13:44 12.19194 -68.97586 45 ft 12 kts 64°
2026-04-17 13:44 12.19205 -68.97485 45 ft 20 kts 100°
2026-04-17 13:45 12.19133 -68.97137 45 ft 86 kts 102°
2026-04-17 13:45 12.18956 -68.96302 49 ft 152 kts 102°
2026-04-17 13:45 12.18697 -68.95154 728 ft 161 kts 106°
2026-04-17 13:45 12.18442 -68.94127 1910 ft 145 kts 106°
2026-04-17 13:46 12.18233 -68.93043 2350 ft 172 kts 100°
2026-04-17 13:46 12.18002 -68.91746 2758 ft 199 kts 102°
2026-04-17 13:46 12.17690 -68.90263 3161 ft 229 kts 103°
2026-04-17 13:46 12.17581 -68.88557 3601 ft 254 kts 80°
2026-04-17 13:47 12.18263 -68.86884 4474 ft 261 kts 55°
2026-04-17 13:47 12.19663 -68.85692 5332 ft 269 kts 27°
2026-04-17 13:47 12.21476 -68.85060 5985 ft 280 kts 18°
2026-04-17 13:47 12.23362 -68.84513 6764 ft 283 kts 17°
2026-04-17 13:48 12.25236 -68.83971 7535 ft 285 kts 17°
2026-04-17 13:48 12.27148 -68.83395 8304 ft 288 kts 17°
2026-04-17 13:48 12.29079 -68.82809 9073 ft 290 kts 17°
2026-04-17 13:48 12.31025 -68.82226 9827 ft 293 kts 16°
2026-04-17 13:49 12.33016 -68.81631 10246 ft 309 kts 16°
2026-04-17 13:49 12.35172 -68.80986 10273 ft 337 kts 16°
2026-04-17 13:49 12.37460 -68.80297 10776 ft 344 kts 16°
2026-04-17 13:49 12.39765 -68.79605 11441 ft 348 kts 15°
2026-04-17 13:50 12.42074 -68.78913 12078 ft 352 kts 15°
2026-04-17 13:50 12.44437 -68.78204 12718 ft 356 kts 15°
2026-04-17 13:50 12.46831 -68.77485 13353 ft 361 kts 15°
2026-04-17 13:50 12.49249 -68.76759 13984 ft 364 kts 14°
2026-04-17 13:51 12.51693 -68.76025 14559 ft 368 kts 14°
2026-04-17 13:51 12.54164 -68.75282 15130 ft 372 kts 14°
2026-04-17 13:51 12.56658 -68.74533 15693 ft 375 kts 14°
2026-04-17 13:51 12.59175 -68.73777 16262 ft 379 kts 14°
2026-04-17 13:52 12.61721 -68.73011 16801 ft 383 kts 14°
2026-04-17 13:52 12.64255 -68.72249 17320 ft 387 kts 14°
2026-04-17 13:52 12.66831 -68.71409 17855 ft 392 kts 19°
2026-04-17 13:52 12.69390 -68.70409 18322 ft 395 kts 18°
2026-04-17 13:53 12.71992 -68.69457 18764 ft 399 kts 17°
2026-04-17 13:53 12.74616 -68.68483 19201 ft 403 kts 18°
2026-04-17 13:53 12.77249 -68.67474 19630 ft 406 kts 18°
2026-04-17 13:53 12.79910 -68.66455 20069 ft 410 kts 17°
2026-04-17 13:54 12.85309 -68.64423 20913 ft 417 kts 17°
2026-04-17 13:54 12.88003 -68.63401 21330 ft 420 kts 17°
2026-04-17 13:55 12.93527 -68.61304 22129 ft 427 kts 17°
2026-04-17 13:55 12.96323 -68.60246 22520 ft 430 kts 17°
2026-04-17 13:55 13.01966 -68.58106 23311 ft 435 kts 17°
2026-04-17 13:56 13.07685 -68.55936 23983 ft 441 kts 17°
2026-04-17 13:56 13.10568 -68.54842 24309 ft 443 kts 17°
2026-04-17 13:56 13.13426 -68.53757 24631 ft 445 kts 17°
2026-04-17 13:57 13.16336 -68.52652 24923 ft 448 kts 16°
2026-04-17 13:57 13.19266 -68.51539 25225 ft 450 kts 16°
2026-04-17 13:57 13.25169 -68.49297 25851 ft 455 kts 16°
2026-04-17 13:58 13.28144 -68.48166 26150 ft 457 kts 16°
2026-04-17 13:58 13.34141 -68.45886 26760 ft 462 kts 16°
2026-04-17 13:58 13.37121 -68.44752 27060 ft 464 kts 16°
2026-04-17 13:59 13.43210 -68.42435 27673 ft 469 kts 16°
2026-04-17 13:59 13.46280 -68.41266 27987 ft 472 kts 16°
2026-04-17 13:59 13.49367 -68.40091 28290 ft 474 kts 16°
2026-04-17 14:00 13.52469 -68.38909 28596 ft 477 kts 16°
2026-04-17 14:00 13.55591 -68.37720 28892 ft 479 kts 16°
2026-04-17 14:00 13.58724 -68.36526 29197 ft 482 kts 16°
2026-04-17 14:00 13.61835 -68.35340 29502 ft 484 kts 16°
2026-04-17 14:01 13.65001 -68.34132 29804 ft 487 kts 16°
2026-04-17 14:01 13.68188 -68.32917 30097 ft 489 kts 16°
2026-04-17 14:01 13.71387 -68.31696 30346 ft 492 kts 16°
2026-04-17 14:01 13.74603 -68.30468 30607 ft 494 kts 16°
2026-04-17 14:02 13.77835 -68.29235 30856 ft 497 kts 16°
2026-04-17 14:02 13.81081 -68.27995 31109 ft 499 kts 16°
2026-04-17 14:02 13.84344 -68.26749 31361 ft 501 kts 16°
2026-04-17 14:02 13.87623 -68.25495 31605 ft 504 kts 16°
2026-04-17 14:03 13.90917 -68.24236 31853 ft 506 kts 16°
2026-04-17 14:03 13.94180 -68.22989 32096 ft 509 kts 16°
2026-04-17 14:03 13.97505 -68.21717 32342 ft 511 kts 16°
2026-04-17 14:03 14.00844 -68.20440 32582 ft 513 kts 16°
2026-04-17 14:04 14.04198 -68.19156 32820 ft 516 kts 16°
2026-04-17 14:04 14.07567 -68.17866 33061 ft 518 kts 16°
2026-04-17 14:04 14.10951 -68.16570 33298 ft 520 kts 16°
2026-04-17 14:04 14.14349 -68.15269 33529 ft 522 kts 16°
2026-04-17 14:05 14.17759 -68.13962 33758 ft 524 kts 16°
2026-04-17 14:05 14.21183 -68.12649 33963 ft 526 kts 16°
2026-04-17 14:05 14.24578 -68.11348 34177 ft 528 kts 16°
2026-04-17 14:05 14.28072 -68.10007 34362 ft 530 kts 16°
2026-04-17 14:06 14.31484 -68.08698 34568 ft 531 kts 16°
2026-04-17 14:06 14.34949 -68.07368 34758 ft 532 kts 16°
2026-04-17 14:06 14.38419 -68.06036 35007 ft 532 kts 16°
2026-04-17 14:06 14.41889 -68.04702 35269 ft 532 kts 16°
2026-04-17 14:07 14.45354 -68.03371 35533 ft 531 kts 16°
2026-04-17 14:07 14.47650 -68.02489 35705 ft 531 kts 16°
2026-04-17 14:07 14.52279 -68.00710 36037 ft 531 kts 16°
2026-04-17 14:07 14.55737 -67.99379 36288 ft 530 kts 16°
2026-04-17 14:08 14.59145 -67.98068 36539 ft 530 kts 16°
2026-04-17 14:08 14.62602 -67.96738 36769 ft 530 kts 16°
2026-04-17 14:08 14.66056 -67.95408 37006 ft 530 kts 16°
2026-04-17 14:08 14.69508 -67.94079 37255 ft 529 kts 16°
2026-04-17 14:09 14.72960 -67.92749 37465 ft 529 kts 16°
2026-04-17 14:09 14.76411 -67.91419 37701 ft 529 kts 16°
2026-04-17 14:09 14.79864 -67.90088 37918 ft 530 kts 16°
2026-04-17 14:09 14.83314 -67.88757 38135 ft 529 kts 16°
2026-04-17 14:10 14.86720 -67.87444 38364 ft 530 kts 16°
2026-04-17 14:10 14.90173 -67.86111 38563 ft 530 kts 16°
2026-04-17 14:10 14.93623 -67.84780 38746 ft 530 kts 16°
2026-04-17 14:10 14.97075 -67.83446 38939 ft 529 kts 16°
2026-04-17 14:11 15.00533 -67.82111 38990 ft 532 kts 16°
2026-04-17 14:11 15.07465 -67.79431 38985 ft 530 kts 16°
2026-04-17 14:12 15.14345 -67.76770 38986 ft 526 kts 16°
2026-04-17 14:12 15.21147 -67.74138 38986 ft 525 kts 16°
2026-04-17 14:13 15.31421 -67.70159 38991 ft 526 kts 16°
2026-04-17 14:13 15.38276 -67.67501 38992 ft 526 kts 16°
2026-04-17 14:14 15.45112 -67.64848 38996 ft 524 kts 16°
2026-04-17 14:14 15.51897 -67.62215 39001 ft 525 kts 17°
2026-04-17 14:15 15.58743 -67.59555 39002 ft 526 kts 17°
2026-04-17 14:15 15.65593 -67.56891 39007 ft 526 kts 17°
2026-04-17 14:16 15.72441 -67.54227 39012 ft 525 kts 17°
2026-04-17 14:16 15.79236 -67.51580 39012 ft 525 kts 17°
2026-04-17 14:17 15.82550 -67.49949 39034 ft 530 kts 30°
2026-04-17 14:17 15.85541 -67.47697 39038 ft 534 kts 41°
2026-04-17 14:17 15.90869 -67.42281 39016 ft 536 kts 44°
2026-04-17 14:18 15.96154 -67.36803 39013 ft 537 kts 43°
2026-04-17 14:18 16.01422 -67.31378 39019 ft 537 kts 43°
2026-04-17 14:19 16.06713 -67.25898 39017 ft 537 kts 43°
2026-04-17 14:19 16.12015 -67.20420 39016 ft 537 kts 43°
2026-04-17 14:20 16.16415 -67.15860 39009 ft 537 kts 43°
2026-04-17 14:20 16.22568 -67.09487 39013 ft 537 kts 43°
2026-04-17 14:21 16.27857 -67.04000 39022 ft 537 kts 43°
2026-04-17 14:21 16.33146 -66.98512 39020 ft 537 kts 44°
2026-04-17 14:22 16.37538 -66.93950 39016 ft 537 kts 43°
2026-04-17 14:22 16.42818 -66.88462 39024 ft 536 kts 44°
2026-04-17 14:23 16.48935 -66.82099 39022 ft 536 kts 44°
2026-04-17 14:23 16.53318 -66.77535 39029 ft 537 kts 44°
2026-04-17 14:24 16.58598 -66.72034 39030 ft 537 kts 44°
2026-04-17 14:24 16.63880 -66.66525 39025 ft 537 kts 44°
2026-04-17 14:25 16.69162 -66.61012 39029 ft 537 kts 44°
2026-04-17 14:25 16.74443 -66.55496 39034 ft 537 kts 44°
2026-04-17 14:26 16.79689 -66.50012 39024 ft 538 kts 44°
2026-04-17 14:26 16.84970 -66.44487 39028 ft 538 kts 44°
2026-04-17 14:27 16.90250 -66.38957 39026 ft 538 kts 44°
2026-04-17 14:27 16.95526 -66.33428 39033 ft 537 kts 44°
2026-04-17 14:28 17.00769 -66.27928 39038 ft 538 kts 44°
2026-04-17 14:28 17.06048 -66.22386 39034 ft 538 kts 44°
2026-04-17 14:29 17.11319 -66.16848 39035 ft 536 kts 44°
2026-04-17 14:29 17.16576 -66.11320 39038 ft 536 kts 44°
2026-04-17 14:30 17.21836 -66.05784 39037 ft 537 kts 44°
2026-04-17 14:30 17.27063 -66.00277 39033 ft 537 kts 44°
2026-04-17 14:31 17.32320 -65.94736 39040 ft 536 kts 44°
2026-04-17 14:31 17.37572 -65.89194 39039 ft 536 kts 44°
2026-04-17 14:32 17.42824 -65.83647 39037 ft 536 kts 44°
2026-04-17 14:32 17.48070 -65.78101 39040 ft 536 kts 44°
2026-04-17 14:33 17.53281 -65.72588 39042 ft 536 kts 44°
2026-04-17 14:33 17.58521 -65.67040 39042 ft 536 kts 44°
2026-04-17 14:34 17.63760 -65.61488 39042 ft 535 kts 44°
2026-04-17 14:34 17.68996 -65.55934 39045 ft 535 kts 44°
2026-04-17 14:35 17.74189 -65.50420 39050 ft 535 kts 44°
2026-04-17 14:35 17.79415 -65.44868 39048 ft 534 kts 44°
2026-04-17 14:36 17.84630 -65.39321 39047 ft 534 kts 44°
2026-04-17 14:36 17.89840 -65.33775 39048 ft 533 kts 44°
2026-04-17 14:37 17.95010 -65.28266 39052 ft 533 kts 44°
2026-04-17 14:37 18.00209 -65.22723 39053 ft 532 kts 44°
2026-04-17 14:38 18.05403 -65.17179 39051 ft 532 kts 44°
2026-04-17 14:38 18.10596 -65.11632 39048 ft 532 kts 44°
2026-04-17 14:39 18.15750 -65.06120 39051 ft 532 kts 44°
2026-04-17 14:39 18.20939 -65.00567 39051 ft 532 kts 44°
2026-04-17 14:40 18.26127 -64.95010 39060 ft 533 kts 44°
2026-04-17 14:40 18.31320 -64.89443 39057 ft 533 kts 44°
2026-04-17 14:41 18.36520 -64.83862 39056 ft 534 kts 44°
2026-04-17 14:41 18.41690 -64.78310 39046 ft 535 kts 44°
2026-04-17 14:42 18.46900 -64.72709 39064 ft 535 kts 44°
2026-04-17 14:42 18.52116 -64.67095 39064 ft 537 kts 44°
2026-04-17 14:43 18.57342 -64.61467 39064 ft 537 kts 44°
2026-04-17 14:43 18.62566 -64.55835 39065 ft 537 kts 44°
2026-04-17 14:44 18.67754 -64.50237 39048 ft 537 kts 44°
2026-04-17 14:44 18.72980 -64.44592 39045 ft 538 kts 44°
2026-04-17 14:45 18.78206 -64.38942 39047 ft 538 kts 44°
2026-04-17 14:45 18.83439 -64.33280 39052 ft 539 kts 44°
2026-04-17 14:46 18.88638 -64.27648 39062 ft 539 kts 44°
2026-04-17 14:46 18.93871 -64.21975 39065 ft 539 kts 44°
2026-04-17 14:47 18.99103 -64.16296 39069 ft 539 kts 44°
2026-04-17 14:47 19.04338 -64.10610 39076 ft 540 kts 44°
2026-04-17 14:48 19.09568 -64.04923 39073 ft 540 kts 44°
2026-04-17 14:48 19.14766 -63.99266 39072 ft 540 kts 44°
2026-04-17 14:49 19.19998 -63.93566 39073 ft 540 kts 44°
2026-04-17 14:49 19.25226 -63.87865 39078 ft 540 kts 44°
2026-04-17 14:50 19.30452 -63.82161 39081 ft 540 kts 44°
2026-04-17 14:50 19.35679 -63.76449 39080 ft 540 kts 44°
2026-04-17 14:51 19.40870 -63.70772 39081 ft 540 kts 44°
2026-04-17 14:51 19.46089 -63.65059 39079 ft 539 kts 44°
2026-04-17 14:52 19.51304 -63.59344 39081 ft 539 kts 44°
2026-04-17 14:52 19.56516 -63.53628 39082 ft 539 kts 44°
2026-04-17 14:53 19.61690 -63.47946 39083 ft 539 kts 44°
2026-04-17 14:53 19.66898 -63.42222 39084 ft 539 kts 44°
2026-04-17 14:54 19.72107 -63.36491 39086 ft 539 kts 44°
2026-04-17 14:54 19.77314 -63.30757 39083 ft 539 kts 43°
2026-04-17 14:55 19.82486 -63.25055 39084 ft 539 kts 43°
2026-04-17 14:55 19.87686 -63.19317 39087 ft 539 kts 43°
2026-04-17 14:56 19.92889 -63.13570 39087 ft 539 kts 43°
2026-04-17 14:56 19.98087 -63.07822 39091 ft 539 kts 43°
2026-04-17 14:57 20.03283 -63.02071 39089 ft 539 kts 43°
2026-04-17 14:57 20.08443 -62.96353 39092 ft 539 kts 43°
2026-04-17 14:58 20.13634 -62.90596 39094 ft 540 kts 43°
2026-04-17 14:58 20.18830 -62.84827 39091 ft 540 kts 43°
2026-04-17 14:59 20.24020 -62.79059 39094 ft 539 kts 43°
2026-04-17 14:59 20.29172 -62.73328 39091 ft 539 kts 43°
2026-04-17 15:00 20.34356 -62.67554 39094 ft 539 kts 43°
2026-04-17 15:00 20.39528 -62.61788 39091 ft 538 kts 43°
2026-04-17 15:01 20.44703 -62.56013 39096 ft 539 kts 43°
2026-04-17 15:01 20.49847 -62.50266 39103 ft 539 kts 43°
2026-04-17 15:02 20.55091 -62.44565 39111 ft 535 kts 38°
2026-04-17 15:02 20.60597 -62.39211 39097 ft 535 kts 38°
2026-04-17 15:03 20.66078 -62.33850 39098 ft 534 kts 39°
2026-04-17 15:03 20.71519 -62.28535 39103 ft 534 kts 38°
2026-04-17 15:04 20.76991 -62.23179 39102 ft 533 kts 38°
2026-04-17 15:04 20.82457 -62.17826 39102 ft 533 kts 38°
2026-04-17 15:05 20.87919 -62.12470 39105 ft 532 kts 39°
2026-04-17 15:05 20.93372 -62.07117 39108 ft 532 kts 38°
2026-04-17 15:06 20.98791 -62.01794 39105 ft 532 kts 39°
2026-04-17 15:06 21.04242 -61.96432 39111 ft 532 kts 39°
2026-04-17 15:07 21.09682 -61.91076 39107 ft 531 kts 38°
2026-04-17 15:07 21.15115 -61.85722 39119 ft 531 kts 39°
2026-04-17 15:08 21.20506 -61.80402 39118 ft 530 kts 39°
2026-04-17 15:08 21.25930 -61.75046 39101 ft 530 kts 39°
2026-04-17 15:09 21.31350 -61.69687 39119 ft 530 kts 39°
2026-04-17 15:09 21.36770 -61.64322 39109 ft 530 kts 39°
2026-04-17 15:10 21.42155 -61.58987 39111 ft 530 kts 39°
2026-04-17 15:11 21.50270 -61.50936 39119 ft 529 kts 39°
2026-04-17 15:11 21.55672 -61.45570 39120 ft 528 kts 39°
2026-04-17 15:12 21.61061 -61.40210 39121 ft 528 kts 39°
2026-04-17 15:12 21.66415 -61.34881 39122 ft 528 kts 39°
2026-04-17 15:13 21.71800 -61.29514 39125 ft 528 kts 39°
2026-04-17 15:13 21.77182 -61.24145 39124 ft 527 kts 39°
2026-04-17 15:14 21.82553 -61.18781 39123 ft 526 kts 39°
2026-04-17 15:14 21.87916 -61.13419 39122 ft 526 kts 39°
2026-04-17 15:15 21.93269 -61.08061 39128 ft 525 kts 39°
2026-04-17 15:15 21.98576 -61.02744 39129 ft 524 kts 39°
2026-04-17 15:16 22.03908 -60.97396 39131 ft 523 kts 39°
2026-04-17 15:16 22.09228 -60.92055 39133 ft 522 kts 39°
2026-04-17 15:17 22.14546 -60.86709 39132 ft 522 kts 39°
2026-04-17 15:17 22.19824 -60.81398 39135 ft 522 kts 39°
2026-04-17 15:18 22.25132 -60.76051 39135 ft 522 kts 39°
2026-04-17 15:18 22.30437 -60.70701 39138 ft 522 kts 39°
2026-04-17 15:19 22.35744 -60.65344 39139 ft 521 kts 39°
2026-04-17 15:19 22.41039 -60.59992 39141 ft 521 kts 40°
2026-04-17 15:20 22.46289 -60.54681 39138 ft 520 kts 40°
2026-04-17 15:20 22.51562 -60.49340 39143 ft 520 kts 40°
2026-04-17 15:21 22.56842 -60.43986 39139 ft 520 kts 40°
2026-04-17 15:21 22.62121 -60.38628 39149 ft 520 kts 40°
2026-04-17 15:22 22.67353 -60.33311 39142 ft 519 kts 40°
2026-04-17 15:22 22.72614 -60.27959 39143 ft 519 kts 40°
2026-04-17 15:23 22.77874 -60.22602 39150 ft 519 kts 40°
2026-04-17 15:23 22.83130 -60.17243 39147 ft 519 kts 40°
2026-04-17 15:24 22.88383 -60.11881 39144 ft 519 kts 40°
2026-04-17 15:24 22.93597 -60.06553 39155 ft 518 kts 40°
2026-04-17 15:25 22.98833 -60.01197 39154 ft 517 kts 40°
2026-04-17 15:25 23.04217 -59.96044 39152 ft 516 kts 38°
2026-04-17 15:26 23.09612 -59.90891 39156 ft 516 kts 37°
2026-04-17 15:26 23.15034 -59.85785 39155 ft 516 kts 38°
2026-04-17 15:27 23.20389 -59.80688 39155 ft 515 kts 38°
2026-04-17 15:27 23.25782 -59.75578 39155 ft 514 kts 38°
2026-04-17 15:28 23.31160 -59.70460 39163 ft 514 kts 38°
2026-04-17 15:28 23.36540 -59.65344 39157 ft 514 kts 38°
2026-04-17 15:29 23.41880 -59.60256 39163 ft 514 kts 38°
2026-04-17 15:29 23.47256 -59.55129 39158 ft 514 kts 38°
2026-04-17 15:30 23.52628 -59.49999 39165 ft 513 kts 38°
2026-04-17 15:30 23.57995 -59.44869 39164 ft 513 kts 38°
2026-04-17 15:31 23.63319 -59.39775 39165 ft 512 kts 38°
2026-04-17 15:31 23.68669 -59.34649 39168 ft 512 kts 38°
2026-04-17 15:32 23.74015 -59.29522 39165 ft 511 kts 38°
2026-04-17 15:32 23.79355 -59.24394 39170 ft 511 kts 38°
2026-04-17 15:33 23.84690 -59.19265 39170 ft 511 kts 38°
2026-04-17 15:33 23.89984 -59.14171 39171 ft 510 kts 38°
2026-04-17 15:34 23.95312 -59.09038 39168 ft 510 kts 38°
2026-04-17 15:34 24.00625 -59.03912 39174 ft 509 kts 38°
2026-04-17 15:35 24.05926 -58.98793 39174 ft 508 kts 38°
2026-04-17 15:35 24.11187 -58.93706 39171 ft 508 kts 38°
2026-04-17 15:36 24.16469 -58.88594 39174 ft 506 kts 38°
2026-04-17 15:36 24.21745 -58.83482 39176 ft 506 kts 38°
2026-04-17 15:37 24.27023 -58.78361 39174 ft 507 kts 39°
2026-04-17 15:37 24.32304 -58.73232 39184 ft 507 kts 39°
2026-04-17 15:38 24.37553 -58.68128 39181 ft 507 kts 39°
2026-04-17 15:38 24.42829 -58.62991 39178 ft 507 kts 39°
2026-04-17 15:39 24.48098 -58.57857 39181 ft 506 kts 39°
2026-04-17 15:39 24.53355 -58.52727 39180 ft 505 kts 39°
2026-04-17 15:40 24.58569 -58.47633 39184 ft 505 kts 39°
2026-04-17 15:40 24.63811 -58.42506 39186 ft 504 kts 39°
2026-04-17 15:41 24.69045 -58.37380 39187 ft 504 kts 39°
2026-04-17 15:41 24.74275 -58.32253 39186 ft 503 kts 39°
2026-04-17 15:42 24.79499 -58.27126 39186 ft 503 kts 39°
2026-04-17 15:42 24.84675 -58.22040 39193 ft 502 kts 39°
2026-04-17 15:43 24.89883 -58.16916 39189 ft 501 kts 39°
2026-04-17 15:43 24.95083 -58.11795 39186 ft 502 kts 39°
2026-04-17 15:44 25.00286 -58.06663 39195 ft 502 kts 39°
2026-04-17 15:44 25.05485 -58.01530 39195 ft 501 kts 39°
2026-04-17 15:45 25.10645 -57.96430 39195 ft 501 kts 39°
2026-04-17 15:45 25.15831 -57.91298 39197 ft 501 kts 39°
2026-04-17 15:46 25.21015 -57.86161 39198 ft 501 kts 39°
2026-04-17 15:46 25.26194 -57.81023 39197 ft 500 kts 40°
2026-04-17 15:47 25.31327 -57.75925 39195 ft 499 kts 40°
2026-04-17 15:47 25.36481 -57.70801 39192 ft 498 kts 40°
2026-04-17 15:48 25.41624 -57.65680 39193 ft 497 kts 40°
2026-04-17 15:48 25.46756 -57.60565 39193 ft 496 kts 40°
2026-04-17 15:49 25.51879 -57.55452 39198 ft 495 kts 40°
2026-04-17 15:49 25.56957 -57.50378 39199 ft 495 kts 40°
2026-04-17 15:50 25.62066 -57.45267 39207 ft 494 kts 40°
2026-04-17 15:50 25.67159 -57.40166 39205 ft 493 kts 40°
2026-04-17 15:51 25.72245 -57.35067 39205 ft 493 kts 40°
2026-04-17 15:51 25.77328 -57.29964 39203 ft 492 kts 40°
2026-04-17 15:52 25.82367 -57.24898 39204 ft 492 kts 40°
2026-04-17 15:52 25.87431 -57.19802 39210 ft 491 kts 40°
2026-04-17 15:53 25.92497 -57.14698 39210 ft 492 kts 40°
2026-04-17 15:53 25.97560 -57.09590 39208 ft 491 kts 41°
2026-04-17 15:54 26.02575 -57.04525 39205 ft 490 kts 41°
2026-04-17 15:54 26.07612 -56.99431 39214 ft 489 kts 41°
2026-04-17 15:55 26.12632 -56.94348 39206 ft 488 kts 41°
2026-04-17 15:55 26.17653 -56.89258 39211 ft 488 kts 41°
2026-04-17 15:56 26.22629 -56.84208 39207 ft 487 kts 41°
2026-04-17 15:56 26.27628 -56.79128 39212 ft 486 kts 41°
2026-04-17 15:57 26.32623 -56.74045 39210 ft 486 kts 41°
2026-04-17 15:57 26.37616 -56.68960 39215 ft 486 kts 41°
2026-04-17 15:58 26.42606 -56.63870 39214 ft 486 kts 41°
2026-04-17 15:58 26.47564 -56.58807 39214 ft 486 kts 42°
2026-04-17 15:59 26.52551 -56.53709 39214 ft 486 kts 42°
2026-04-17 15:59 26.57537 -56.48604 39215 ft 486 kts 42°
2026-04-17 16:00 26.62519 -56.43498 39216 ft 486 kts 42°
2026-04-17 16:00 26.67459 -56.38429 39218 ft 485 kts 42°
2026-04-17 16:01 26.72420 -56.33331 39215 ft 484 kts 42°
2026-04-17 16:01 26.77380 -56.28229 39214 ft 484 kts 42°
2026-04-17 16:02 26.82332 -56.23128 39217 ft 484 kts 42°
2026-04-17 16:02 26.87284 -56.18021 39216 ft 484 kts 43°
2026-04-17 16:03 26.92201 -56.12943 39218 ft 484 kts 43°
2026-04-17 16:03 26.97146 -56.07832 39218 ft 483 kts 43°
2026-04-17 16:04 27.02090 -56.02713 39218 ft 484 kts 43°
2026-04-17 16:04 27.07031 -55.97592 39222 ft 484 kts 43°
2026-04-17 16:05 27.11968 -55.92469 39221 ft 483 kts 43°
2026-04-17 16:05 27.16870 -55.87375 39220 ft 483 kts 43°
2026-04-17 16:06 27.21801 -55.82245 39219 ft 483 kts 43°
2026-04-17 16:06 27.26730 -55.77111 39218 ft 483 kts 43°
2026-04-17 16:07 27.31658 -55.71970 39219 ft 483 kts 43°
2026-04-17 16:07 27.36580 -55.66830 39225 ft 483 kts 43°
2026-04-17 16:08 27.41464 -55.61722 39222 ft 482 kts 43°
2026-04-17 16:08 27.46377 -55.56579 39224 ft 483 kts 43°
2026-04-17 16:09 27.51290 -55.51429 39221 ft 482 kts 43°
2026-04-17 16:09 27.56189 -55.46286 39222 ft 481 kts 43°
2026-04-17 16:10 27.61054 -55.41173 39217 ft 482 kts 43°
2026-04-17 16:10 27.65960 -55.36010 39220 ft 482 kts 43°
2026-04-17 16:11 27.70863 -55.30844 39219 ft 482 kts 43°
2026-04-17 16:11 27.75763 -55.25673 39220 ft 482 kts 43°
2026-04-17 16:12 27.80630 -55.20531 39218 ft 482 kts 43°
2026-04-17 16:12 27.85526 -55.15352 39219 ft 482 kts 43°
2026-04-17 16:13 27.90423 -55.10166 39215 ft 482 kts 43°
2026-04-17 16:13 27.95314 -55.04979 39219 ft 482 kts 43°
2026-04-17 16:14 28.02122 -54.96716 39227 ft 483 kts 54°
2026-04-17 16:14 28.06018 -54.90514 39236 ft 483 kts 54°
2026-04-17 16:15 28.09953 -54.84354 39237 ft 483 kts 54°
2026-04-17 16:15 28.13863 -54.78168 39235 ft 483 kts 54°
2026-04-17 16:16 28.17779 -54.71987 39230 ft 483 kts 54°
2026-04-17 16:16 28.21664 -54.65839 39228 ft 483 kts 54°
2026-04-17 16:17 28.25573 -54.59645 39228 ft 483 kts 54°
2026-04-17 16:17 28.29484 -54.53440 39230 ft 483 kts 54°
2026-04-17 16:18 28.31458 -54.50305 38799 ft 490 kts 54°
2026-04-17 16:18 28.33414 -54.47194 38931 ft 479 kts 54°
2026-04-17 16:18 28.35341 -54.44130 39037 ft 476 kts 54°
2026-04-17 16:18 28.37268 -54.41063 39163 ft 478 kts 54°
2026-04-17 16:19 28.41126 -54.34914 39222 ft 485 kts 54°
2026-04-17 16:19 28.45048 -54.28655 39223 ft 487 kts 54°
2026-04-17 16:20 28.48970 -54.22387 39222 ft 486 kts 54°
2026-04-17 16:20 28.52882 -54.16124 39224 ft 486 kts 54°
2026-04-17 16:21 28.56766 -54.09899 39219 ft 486 kts 54°
2026-04-17 16:21 28.60673 -54.03626 39227 ft 486 kts 54°
2026-04-17 16:22 28.64578 -53.97349 39224 ft 486 kts 54°
2026-04-17 16:22 28.68474 -53.91076 39220 ft 484 kts 54°
2026-04-17 16:23 28.72327 -53.84863 39224 ft 483 kts 54°
2026-04-17 16:23 28.76207 -53.78596 39221 ft 484 kts 54°
2026-04-17 16:24 28.80089 -53.72317 39224 ft 485 kts 54°
2026-04-17 16:24 28.83970 -53.66032 39225 ft 484 kts 54°
2026-04-17 16:25 28.87820 -53.59787 39225 ft 484 kts 54°
2026-04-17 16:25 28.91691 -53.53497 39224 ft 484 kts 54°
2026-04-17 16:26 28.95556 -53.47209 39226 ft 484 kts 54°
2026-04-17 16:26 28.99422 -53.40909 39225 ft 484 kts 54°
2026-04-17 16:27 29.03285 -53.34605 39227 ft 484 kts 54°
2026-04-17 16:27 29.07115 -53.28345 39226 ft 484 kts 54°
2026-04-17 16:28 29.10967 -53.22041 39223 ft 484 kts 54°
2026-04-17 16:28 29.14817 -53.15728 39229 ft 484 kts 54°
2026-04-17 16:29 29.18668 -53.09407 39227 ft 484 kts 55°
2026-04-17 16:29 29.22488 -53.03124 39229 ft 484 kts 55°
2026-04-17 16:30 29.26332 -52.96795 39232 ft 484 kts 55°
2026-04-17 16:30 29.30173 -52.90458 39226 ft 484 kts 55°
2026-04-17 16:31 29.34014 -52.84114 39231 ft 484 kts 55°
2026-04-17 16:31 29.37848 -52.77770 39229 ft 484 kts 55°
2026-04-17 16:32 29.41653 -52.71466 39230 ft 484 kts 55°
2026-04-17 16:32 29.45480 -52.65116 39230 ft 484 kts 55°
2026-04-17 16:33 29.49302 -52.58762 39231 ft 484 kts 55°
2026-04-17 16:33 29.53119 -52.52409 39231 ft 483 kts 55°
2026-04-17 16:34 29.56907 -52.46094 39230 ft 483 kts 55°
2026-04-17 16:34 29.60713 -52.39739 39238 ft 483 kts 55°
2026-04-17 16:35 29.64514 -52.33381 39241 ft 482 kts 55°
2026-04-17 16:35 29.68308 -52.27026 39235 ft 482 kts 55°
2026-04-17 16:36 29.72073 -52.20711 39234 ft 482 kts 55°
2026-04-17 16:36 29.75858 -52.14351 39234 ft 482 kts 55°
2026-04-17 16:37 29.79640 -52.07988 39237 ft 481 kts 55°
2026-04-17 16:37 29.83413 -52.01627 39240 ft 481 kts 55°
2026-04-17 16:38 29.87183 -51.95265 39242 ft 481 kts 55°
2026-04-17 16:38 29.90920 -51.88945 39239 ft 480 kts 55°
2026-04-17 16:39 29.94680 -51.82579 39244 ft 480 kts 55°
2026-04-17 16:39 29.98431 -51.76219 39243 ft 478 kts 56°
2026-04-17 16:40 30.02159 -51.69884 39242 ft 476 kts 56°
2026-04-17 16:40 30.05849 -51.63607 39243 ft 476 kts 56°
2026-04-17 16:41 30.09563 -51.57278 39242 ft 476 kts 56°
2026-04-17 16:41 30.13275 -51.50943 39240 ft 476 kts 56°
2026-04-17 16:42 30.16973 -51.44622 39243 ft 475 kts 56°
2026-04-17 16:42 30.20643 -51.38341 39248 ft 475 kts 56°
2026-04-17 16:43 30.24335 -51.32009 39247 ft 475 kts 56°
2026-04-17 16:43 30.28022 -51.25676 39251 ft 474 kts 57°
2026-04-17 16:44 30.31702 -51.19347 39248 ft 474 kts 57°
2026-04-17 16:44 30.35378 -51.13015 39247 ft 474 kts 57°
2026-04-17 16:45 30.39024 -51.06723 39250 ft 474 kts 57°
2026-04-17 16:45 30.42693 -51.00381 39248 ft 473 kts 57°
2026-04-17 16:46 30.46354 -50.94044 39250 ft 473 kts 57°
2026-04-17 16:46 30.50013 -50.87701 39247 ft 473 kts 57°
2026-04-17 16:47 30.53054 -50.82421 39250 ft 473 kts 57°
2026-04-17 16:47 30.57300 -50.75037 39252 ft 473 kts 57°
2026-04-17 16:48 30.60948 -50.68681 39257 ft 473 kts 57°
2026-04-17 16:48 30.64597 -50.62315 39249 ft 473 kts 57°
2026-04-17 16:49 30.67626 -50.57023 39247 ft 473 kts 57°
2026-04-17 16:49 30.71857 -50.49617 39250 ft 473 kts 57°
2026-04-17 16:50 30.75492 -50.43243 39252 ft 473 kts 57°
2026-04-17 16:50 30.78510 -50.37944 39251 ft 473 kts 57°
2026-04-17 16:51 30.82141 -50.31559 39248 ft 473 kts 57°
2026-04-17 16:51 30.85769 -50.25169 39248 ft 473 kts 57°
2026-04-17 16:52 30.89973 -50.17752 39243 ft 472 kts 57°
2026-04-17 16:52 30.92980 -50.12437 39252 ft 473 kts 57°
2026-04-17 16:53 30.96603 -50.06025 39249 ft 474 kts 57°
2026-04-17 16:53 31.00225 -49.99604 39248 ft 474 kts 57°
2026-04-17 16:54 31.03880 -49.93195 39249 ft 475 kts 56°
2026-04-17 16:54 31.07536 -49.86771 39248 ft 476 kts 56°
2026-04-17 16:55 31.11168 -49.80372 39247 ft 476 kts 56°
2026-04-17 16:55 31.14820 -49.73937 39250 ft 475 kts 56°
2026-04-17 16:56 31.18458 -49.67509 39250 ft 474 kts 56°
2026-04-17 16:56 31.22095 -49.61076 39249 ft 474 kts 56°
2026-04-17 16:57 31.25701 -49.54683 39249 ft 475 kts 56°
2026-04-17 16:57 31.29336 -49.48233 39248 ft 475 kts 56°
2026-04-17 16:58 31.32968 -49.41775 39249 ft 475 kts 56°
2026-04-17 16:58 31.36593 -49.35318 39248 ft 474 kts 56°
2026-04-17 16:59 31.40203 -49.28879 39245 ft 473 kts 56°
2026-04-17 16:59 31.43790 -49.22469 39248 ft 475 kts 56°
2026-04-17 17:00 31.47414 -49.15983 39246 ft 476 kts 56°
2026-04-17 17:00 31.51036 -49.09489 39246 ft 476 kts 56°
2026-04-17 17:01 31.54657 -49.02986 39239 ft 476 kts 56°
2026-04-17 17:01 31.58252 -48.96519 39254 ft 477 kts 56°
2026-04-17 17:02 31.61871 -48.89998 39245 ft 477 kts 56°
2026-04-17 17:02 31.65484 -48.83477 39238 ft 476 kts 56°
2026-04-17 17:03 31.69095 -48.76949 39247 ft 477 kts 56°
2026-04-17 17:03 31.72709 -48.70402 39248 ft 478 kts 56°
2026-04-17 17:04 31.76299 -48.63890 39236 ft 479 kts 56°
2026-04-17 17:04 31.79919 -48.57312 39239 ft 480 kts 56°
2026-04-17 17:05 31.83539 -48.50721 39244 ft 480 kts 56°
2026-04-17 17:05 31.87159 -48.44120 39239 ft 480 kts 56°
2026-04-17 17:06 31.90754 -48.37552 39245 ft 481 kts 56°
2026-04-17 17:06 31.94376 -48.30925 39242 ft 481 kts 56°
2026-04-17 17:07 31.97996 -48.24289 39242 ft 482 kts 56°
2026-04-17 17:07 32.01613 -48.17647 39244 ft 482 kts 56°
2026-04-17 17:08 32.05201 -48.11047 39236 ft 481 kts 56°
2026-04-17 17:08 32.08810 -48.04398 39234 ft 481 kts 55°
2026-04-17 17:09 32.12413 -47.97747 39240 ft 481 kts 55°
2026-04-17 17:09 32.16015 -47.91086 39236 ft 482 kts 55°
2026-04-17 17:10 32.19596 -47.84453 39229 ft 482 kts 55°
2026-04-17 17:10 32.23199 -47.77766 39228 ft 483 kts 55°
2026-04-17 17:11 32.26800 -47.71072 39230 ft 483 kts 55°
2026-04-17 17:11 32.30398 -47.64372 39227 ft 483 kts 55°
2026-04-17 17:12 32.33996 -47.57660 39231 ft 483 kts 55°
2026-04-17 17:12 32.37566 -47.50988 39232 ft 483 kts 55°
2026-04-17 17:13 32.41159 -47.44262 39228 ft 483 kts 55°
2026-04-17 17:13 32.44743 -47.37538 39231 ft 483 kts 55°
2026-04-17 17:14 32.48324 -47.30811 39226 ft 483 kts 55°
2026-04-17 17:15 32.53668 -47.20745 39228 ft 483 kts 55°
2026-04-17 17:15 32.57246 -47.13994 39227 ft 484 kts 55°
2026-04-17 17:16 32.60822 -47.07232 39226 ft 484 kts 55°
2026-04-17 17:16 32.64395 -47.00464 39224 ft 484 kts 55°
2026-04-17 17:17 32.67942 -46.93733 39222 ft 484 kts 55°
2026-04-17 17:17 32.71510 -46.86949 39226 ft 484 kts 55°
2026-04-17 17:18 32.75075 -46.80159 39221 ft 485 kts 55°
2026-04-17 17:18 32.78641 -46.73355 39223 ft 485 kts 55°
2026-04-17 17:19 32.82203 -46.66546 39220 ft 485 kts 55°
2026-04-17 17:19 32.85737 -46.59777 39217 ft 485 kts 55°
2026-04-17 17:20 32.89295 -46.52952 39215 ft 485 kts 55°
2026-04-17 17:20 32.92848 -46.46122 39217 ft 486 kts 55°
2026-04-17 17:21 32.96400 -46.39282 39217 ft 485 kts 55°
2026-04-17 17:21 32.99921 -46.32488 39220 ft 485 kts 55°
2026-04-17 17:22 33.03463 -46.25644 39216 ft 485 kts 55°
2026-04-17 17:22 33.06999 -46.18795 39215 ft 485 kts 55°
2026-04-17 17:23 33.10533 -46.11939 39212 ft 485 kts 55°
2026-04-17 17:23 33.14064 -46.05076 39211 ft 486 kts 55°
2026-04-17 17:24 33.17572 -45.98244 39211 ft 486 kts 55°
2026-04-17 17:24 33.21102 -45.91359 39210 ft 487 kts 55°
2026-04-17 17:25 33.24633 -45.84456 39208 ft 487 kts 55°
2026-04-17 17:25 33.28163 -45.77544 39208 ft 488 kts 55°
2026-04-17 17:26 33.31669 -45.70664 39205 ft 488 kts 55°
2026-04-17 17:26 33.35197 -45.63730 39203 ft 488 kts 55°
2026-04-17 17:27 33.38723 -45.56785 39203 ft 488 kts 55°
2026-04-17 17:27 33.42243 -45.49838 39204 ft 488 kts 55°
2026-04-17 17:28 33.45736 -45.42933 39204 ft 488 kts 55°
2026-04-17 17:28 33.49251 -45.35971 39203 ft 488 kts 55°
2026-04-17 17:29 33.52759 -45.29007 39200 ft 488 kts 55°
2026-04-17 17:29 33.56263 -45.22041 39200 ft 488 kts 55°
2026-04-17 17:30 33.59737 -45.15120 39200 ft 488 kts 55°
2026-04-17 17:30 33.63231 -45.08146 39196 ft 488 kts 55°
2026-04-17 17:31 33.66650 -45.01288 38986 ft 470 kts 55°
2026-04-17 17:31 33.68324 -44.97915 38249 ft 472 kts 55°
2026-04-17 17:31 33.70011 -44.94519 37416 ft 474 kts 56°
2026-04-17 17:31 33.71710 -44.91121 36546 ft 476 kts 55°
2026-04-17 17:32 33.73415 -44.87738 36080 ft 470 kts 55°
2026-04-17 17:32 33.75068 -44.84454 35861 ft 458 kts 55°
2026-04-17 17:32 33.75611 -44.83372 35968 ft 449 kts 55°